QZS-4

导读

QZS-4是日本准天顶卫星系统QZSS的第四颗导航卫星,由日本宇宙航空研究开发机构运营,于2017年10月9日发射,目前仍在轨运行。该卫星运行在准天顶轨道,轨道周期约1436分钟,轨道倾角约40.2度。QZSS系统旨在为日本及亚太区域提供高精度定位服务,可与GPS等全球导航系统互操作,能够有效改善城市峡谷、山区等信号薄弱区域的定位精度,支撑交通管理、无人驾驶、灾害响应等领域应用。

基本信息
目录编号:
42965
目录名称:
QZS-4
国际标识:
2017-062A
轨道中心:
EARTH
卫星名称:
QZS-4
卫星全名:
--
卫星状态:
在轨 (已飞行3259 天)
发射日期:
2017-10-09 UTC
国别 :
日本 (JP)
星等 :
--
该卫星已列入 空间交会检测服务 Space Conjunction Data Service (SCDS) ,当前飞行风险评估等级: 无高风险
轨道信息
数据来源 国际轨道数据
星历时间: 2026-09-08T20:16:28+0800
2天前
查看轨道信息
半长轴: 42163.831km
偏心率: 0.0749911
轨道倾角: 40.054°
近地点辐角 269.565°
升交点赤经 342.422°
平近点角 60.360°
近地点: 32623.781km
远地点: 38947.607km
周期: 1436.051分钟
每日圈数: 1.00275
详细信息
使用方式:
暂无
2D轨道图
3D轨道图
轨道高度分析图
轨道倾角分析图
轨道综合分析图
查看轨道综合分析图
与全量物体交会距离演化趋势
与全量物体交会风险概率演化趋势